EHI
4 12 26 35 26 9 1 0 0 0 0 0 0 0 0 0 0 0 0 1 1 1 1 3 3 3 2 2 3 4 3 1 1 2 3 3 4 3 2 0 0 1 1 1 1 1 1 1 0
7 17 31 34 21 6 0 0 0 0 0 0 0 0 0 0 0 0 0 0 1 2 2 2 2 1 2 2 2 3 3 1 1 1 2 2 2 2 1 0 1 2 2 1 1 1 1 1 0
17 26 33 26 11 2 0 0 0 0 0 0 0 0 0 0 0 0 0 0 1 3 3 1 1 1 1 1 1 2 2 1 0 0 1 1 1 2 1 1 2 3 2 1 0 0 1 1 1
30 32 28 14 3 0 0 0 0 0 0 0 0 0 0 0 0 1 1 1 2 3 3 2 3 3 1 0 0 0 1 0 0 0 1 1 2 2 1 1 2 3 2 1 0 1 1 1 0
36 29 17 5 0 0 0 0 0 0 0 0 0 0 0 0 0 1 2 1 1 3 3 3 4 4 2 0 0 0 1 1 1 0 1 2 2 1 1 1 3 4 3 2 1 1 2 1 0
34 22 7 1 0 0 0 0 0 0 0 0 1 1 1 0 0 1 1 1 1 3 4 3 3 3 3 1 0 1 2 3 4 2 2 2 2 1 0 1 3 5 4 3 3 2 2 1 1
28 17 4 0 0 0 0 0 0 0 0 0 1 1 1 0 0 1 1 0 1 2 4 3 2 3 3 4 3 3 4 6 6 5 4 4 3 2 1 2 2 3 3 3 3 3 3 4 4
19 12 4 0 0 0 0 0 0 0 0 0 0 1 1 2 2 2 2 1 0 2 3 3 3 3 3 5 6 6 6 7 8 8 7 6 4 3 4 4 3 3 3 3 3 4 6 6 6
10 6 2 0 0 0 0 0 0 0 0 0 0 1 3 3 3 4 3 1 1 2 3 3 3 2 2 3 6 8 7 7 9 9 9 9 6 4 5 6 6 5 3 4 6 8 9 8 6
3 2 0 0 0 0 0 0 0 0 0 0 2 4 5 5 5 5 4 2 1 2 3 2 2 2 2 2 4 6 6 6 8 9 9 9 7 5 5 6 7 7 6 6 8 10 9 7 5
1 0 0 0 0 0 0 0 0 0 0 1 4 6 6 5 4 4 3 2 1 1 1 1 3 5 5 3 3 3 3 4 6 8 9 7 6 4 5 6 7 7 7 6 7 7 6 5 5
0 0 0 0 0 0 0 0 0 0 0 2 5 6 5 4 3 3 3 2 1 1 1 2 6 11 11 8 6 4 2 2 5 8 9 6 4 4 4 4 4 5 4 4 4 3 3 4 5
0 0 0 0 0 0 0 0 0 0 0 2 5 7 7 5 3 3 3 2 1 1 2 4 8 12 12 11 10 7 4 3 4 7 7 6 4 4 4 4 4 2 1 2 2 3 4 5 5
0 0 0 0 0 0 0 0 0 0 0 2 5 8 9 7 6 5 5 5 6 6 7 8 9 10 10 9 9 8 5 5 4 4 6 6 5 6 7 6 5 3 3 3 4 4 4 4 4
0 0 0 0 0 0 0 0 0 0 0 1 4 8 9 9 9 10 10 11 13 15 14 12 9 10 10 8 7 6 5 5 5 4 6 7 7 9 9 7 7 6 7 7 6 4 3 2 1
0 0 0 0 0 0 0 1 1 1 0 0 3 7 10 11 12 14 16 17 20 21 19 14 11 11 11 8 6 4 4 5 5 6 7 7 8 10 9 8 8 9 8 6 4 3 3 2 1
0 0 0 0 0 0 0 1 2 1 1 2 4 9 13 14 16 17 18 21 23 23 19 15 12 13 11 8 5 4 4 5 5 6 7 7 8 8 8 8 9 9 6 2 2 2 3 3 3
0 0 0 0 0 0 0 1 2 2 4 6 10 14 17 19 20 20 20 22 25 25 22 18 15 15 13 9 8 7 6 6 5 6 10 10 8 8 9 8 8 9 7 3 1 3 4 5 6
0 0 0 0 0 0 0 1 4 4 5 10 15 20 24 26 27 26 25 25 28 31 30 25 21 19 17 13 11 11 10 8 8 11 16 16 13 11 11 10 9 10 10 6 3 4 4 5 6
0 0 0 0 0 0 0 1 4 5 6 11 17 23 28 34 37 37 32 28 31 37 37 30 24 22 20 16 12 11 11 11 11 15 19 20 17 14 13 13 12 13 13 10 8 7 6 3 3
0 0 0 0 0 0 0 0 2 5 6 9 16 24 30 37 45 47 41 35 35 38 37 31 27 25 21 18 15 12 13 13 12 15 19 21 20 17 17 18 18 17 17 16 14 12 9 5 3
0 0 0 0 0 0 0 0 2 5 6 7 13 22 30 37 46 52 49 42 36 35 37 39 37 32 26 22 18 16 16 15 13 15 20 24 23 20 20 23 24 22 21 19 15 13 13 11 8
0 0 0 0 0 0 0 0 2 4 5 6 10 18 28 35 43 50 51 45 37 33 39 49 50 44 35 26 21 19 17 15 13 16 21 25 25 25 24 25 26 26 25 21 15 13 15 14 11
0 0 0 0 0 0 0 0 1 3 4 6 9 15 24 33 40 48 51 49 42 38 42 54 59 54 44 33 24 22 19 16 15 19 22 24 26 29 29 28 29 29 28 24 19 16 16 15 13
0 0 0 0 0 0 0 0 1 2 4 6 9 13 19 29 37 44 51 54 50 44 47 58 67 63 52 39 30 26 23 21 22 24 24 25 26 29 31 34 35 32 28 24 20 18 17 16 14
0 0 0 0 0 0 0 1 2 3 4 5 9 12 17 24 31 38 47 53 52 49 53 65 73 71 60 50 42 37 31 27 28 28 27 25 25 28 34 38 38 34 27 20 16 16 17 18 17
0 0 0 0 0 0 1 4 6 6 5 6 9 13 17 20 26 34 42 48 50 52 59 69 75 74 68 61 56 49 42 36 34 33 29 26 26 32 39 42 38 34 27 19 15 14 15 16 17
0 0 0 0 0 0 2 5 7 7 7 8 10 14 17 19 23 31 38 42 47 52 59 67 72 72 68 65 59 54 49 45 42 37 32 31 32 37 43 44 40 34 26 20 18 15 13 13 13
0 0 0 0 0 0 2 4 5 6 7 9 12 16 18 18 21 27 34 37 42 49 55 63 68 68 64 61 57 55 52 49 46 42 38 39 40 42 45 45 41 34 26 23 21 17 12 11 10
0 0 0 0 0 0 1 3 4 5 7 10 14 18 18 16 19 25 30 35 40 45 52 60 66 67 62 57 56 56 54 50 47 45 44 45 45 43 45 45 41 33 27 25 23 17 12 9 9
Wind_Speed
9 11 9 5 4 2 9 12 13 12 11 11 11 11 14 14 10 9 5 7 9 10 10 11 10 11 11 10 10 10 11 11 11 11 11 12 12 13 13 14 14 14 14 14 14 13 12 11 11
9 10 7 4 3 4 10 10 11 11 10 9 11 13 14 14 12 9 6 6 9 11 10 11 10 11 11 10 10 10 11 11 11 11 11 11 12 12 13 14 14 14 14 13 14 13 12 11 10
11 11 6 4 2 8 11 10 9 10 9 9 11 13 12 10 10 7 6 8 10 11 11 10 10 10 10 10 9 9 10 10 10 11 11 11 12 12 12 13 13 13 13 13 13 12 11 10 10
7 5 5 1 9 12 11 9 8 10 10 10 11 12 12 10 8 8 8 9 11 10 10 10 9 10 10 10 9 9 10 10 10 11 11 11 11 11 11 11 11 12 12 12 12 12 10 9 8
7 4 2 4 11 12 10 9 9 10 11 12 14 14 13 11 10 10 9 10 10 10 10 10 12 12 11 10 10 9 10 10 10 10 10 10 11 11 10 10 10 10 10 11 11 11 10 9 7
4 3 1 7 11 10 10 10 10 12 11 12 13 14 11 9 9 9 10 9 10 10 10 10 12 12 11 10 10 10 10 10 10 10 10 10 10 10 10 9 9 9 9 10 10 10 9 8 6
5 2 3 8 9 9 9 10 10 11 10 10 11 12 11 9 8 9 10 9 9 10 10 9 9 10 10 9 10 10 10 10 9 10 10 10 10 10 10 8 8 8 8 9 10 10 9 7 6
4 2 4 7 9 9 9 10 10 10 11 10 9 10 10 10 8 9 10 10 8 8 8 8 9 9 8 9 10 10 10 10 9 9 9 10 10 10 10 9 9 9 9 9 10 9 9 8 6
4 1 5 7 7 7 8 10 10 10 11 12 12 14 14 12 10 9 9 9 7 7 6 7 7 7 7 8 10 10 10 9 9 8 9 8 6 7 7 8 10 10 10 9 9 9 10 9 8
2 2 7 8 6 7 8 8 8 9 12 13 13 15 14 12 9 9 9 9 8 7 6 5 6 6 6 6 7 5 6 6 5 4 5 4 4 4 6 9 10 10 10 10 9 9 9 7 4
3 4 6 8 7 7 7 8 8 9 10 12 13 14 13 12 9 9 8 9 8 8 6 6 6 6 5 4 4 3 3 4 4 4 3 3 3 4 4 4 6 6 7 5 7 7 5 4 2
4 3 5 7 7 6 7 8 9 10 11 13 14 14 12 11 10 9 8 9 9 8 7 6 7 6 5 4 3 3 3 3 3 4 3 3 2 2 3 2 3 3 2 3 3 2 2 2 2
2 3 4 5 6 6 6 8 10 12 13 13 14 13 12 11 11 10 9 9 9 8 7 7 7 6 4 3 1 3 3 3 4 3 2 2 3 2 3 2 2 2 2 2 2 2 3 2 2
1 1 2 4 5 5 6 7 9 11 12 11 11 11 11 10 11 10 9 9 8 8 7 7 7 6 3 2 1 2 3 3 3 3 3 2 3 3 2 2 1 2 1 2 2 3 2 2 2
2 2 2 4 4 5 5 5 9 10 11 11 10 10 11 10 11 10 9 9 9 8 7 6 7 6 3 2 1 2 2 3 3 3 3 2 3 2 2 2 1 1 1 1 1 2 1 2 2
7 6 4 4 4 5 4 4 10 11 11 10 10 10 10 10 11 10 10 9 8 8 7 4 5 7 4 2 1 1 2 2 2 2 3 2 3 2 1 1 1 1 1 1 2 2 2 2 2
6 5 4 4 4 3 3 6 9 10 10 9 9 9 10 10 11 11 11 10 9 8 7 4 4 5 4 3 1 2 2 2 1 2 2 2 2 2 1 1 1 1 1 1 1 2 1 1 1
3 4 2 2 3 3 3 6 10 10 10 10 9 9 10 11 11 12 11 11 10 8 7 5 4 4 3 3 1 1 1 1 1 2 2 2 1 2 1 2 1 1 1 1 1 1 0 1 1
5 6 3 0 2 2 3 5 9 9 10 10 10 10 10 11 13 12 12 12 11 9 8 6 5 4 2 2 2 2 2 1 2 2 3 2 1 1 1 1 1 1 1 1 1 0 1 1 1
7 7 5 1 1 3 1 2 7 9 8 9 10 11 11 12 13 12 12 11 11 10 8 7 6 5 4 2 2 2 2 2 2 2 3 2 2 1 2 1 0 1 1 1 1 1 1 1 1
7 7 5 4 5 4 2 4 6 9 9 10 11 11 12 13 14 13 12 11 11 10 10 8 6 6 5 4 3 2 1 1 1 2 2 1 2 2 1 2 0 0 1 1 1 1 1 1 2
8 6 6 6 7 4 5 4 6 9 11 11 11 12 12 13 14 14 13 12 11 11 10 8 7 5 5 4 3 3 3 2 2 2 2 2 2 2 2 2 1 1 0 1 2 1 2 2 2
8 7 8 9 8 9 7 5 5 8 10 11 10 11 13 14 14 14 14 12 11 11 10 9 7 6 5 4 4 3 2 2 2 2 3 3 2 2 1 1 1 1 1 1 1 0 1 1 1
9 9 9 9 8 10 7 5 4 5 7 9 9 9 10 12 13 13 13 11 10 10 9 10 8 6 5 5 4 3 3 2 2 2 2 3 2 2 2 2 1 1 1 1 1 1 1 1 1
10 8 6 6 6 7 5 4 2 4 5 7 9 9 10 11 11 13 13 12 10 10 10 9 9 7 6 6 5 4 3 3 3 3 3 3 2 2 1 1 1 1 1 1 1 1 1 1 1
10 9 8 6 6 6 5 3 4 6 5 7 8 9 10 10 10 11 12 12 10 10 10 9 9 8 7 6 5 4 4 3 3 3 2 2 1 1 2 2 2 1 1 1 1 2 2 2 2
10 9 9 8 9 9 4 2 5 6 6 7 8 9 10 10 11 11 11 11 10 9 8 9 9 8 8 7 5 5 4 4 3 2 2 2 1 2 2 2 2 2 1 1 1 1 2 1 2
13 11 8 7 5 8 6 4 2 5 5 5 7 8 8 9 10 10 9 10 10 9 8 8 8 8 7 7 7 6 5 4 3 3 3 2 2 1 2 2 2 2 2 2 2 2 2 2 2
10 11 9 6 6 7 6 3 2 5 5 5 6 6 7 8 9 10 9 9 9 9 9 9 8 8 7 7 6 5 5 5 4 4 3 3 2 2 3 3 2 2 2 2 2 2 2 2 2
11 10 10 7 6 7 6 3 2 4 6 5 5 6 6 7 8 8 8 8 8 8 8 8 8 8 7 6 6 5 5 5 4 4 4 3 3 3 3 2 2 3 2 2 2 3 3 2 2
Wind_Direction
200 214 220 242 256 243 59 60 62 59 58 57 55 57 58 50 52 79 81 75 89 94 92 91 85 89 89 89 89 88 90 92 94 98 101 105 108 109 109 111 116 118 120 119 119 119 119 120 117
227 227 229 246 255 65 64 63 62 64 69 73 69 65 66 62 68 86 87 84 87 93 90 86 90 90 91 91 91 90 92 94 96 98 102 106 110 112 114 115 117 120 122 123 124 122 121 123 122
245 247 256 244 50 66 67 67 70 79 79 76 75 64 57 64 72 89 104 101 90 89 91 92 94 97 97 94 93 94 95 97 100 102 103 108 111 112 113 115 119 122 124 124 124 122 123 126 129
245 241 249 271 67 68 71 71 71 80 80 71 78 75 66 64 85 103 107 102 95 95 93 95 95 104 103 100 99 98 99 102 105 106 105 108 111 112 115 116 119 124 126 127 128 128 128 130 135
243 267 248 74 73 76 76 72 76 77 75 77 81 87 82 81 94 102 102 98 98 98 96 98 99 104 104 103 104 106 105 108 110 111 113 114 116 117 118 119 123 129 132 135 135 135 135 135 143
255 251 97 82 79 77 78 75 76 81 84 88 95 95 92 98 97 100 101 98 99 102 102 106 104 105 104 104 107 109 113 116 117 117 117 117 120 121 120 122 127 133 136 140 139 139 142 145 153
251 291 69 87 85 77 76 76 72 82 82 82 94 100 103 103 104 105 103 98 101 106 114 117 118 116 111 108 111 116 121 124 125 126 129 129 128 125 124 128 136 141 143 144 143 145 148 153 162
243 302 58 76 78 80 80 81 83 83 82 90 94 103 115 121 123 111 104 102 97 100 110 120 124 130 130 125 125 128 130 132 135 137 138 137 134 136 139 137 139 143 146 149 151 154 159 165 175
246 307 69 70 82 90 90 88 94 96 89 79 82 100 117 126 122 115 108 105 101 96 98 107 121 126 127 126 130 139 139 142 145 146 152 154 154 148 146 142 148 153 157 160 163 166 170 177 187
141 89 79 82 89 92 92 95 103 105 100 96 95 106 121 125 125 118 115 115 113 107 105 106 106 104 109 115 128 141 136 138 145 136 147 153 151 140 140 148 158 163 167 172 176 178 180 189 194
84 69 76 88 87 88 97 97 93 94 103 114 122 125 130 131 129 120 119 117 112 112 104 99 97 93 96 102 115 115 117 125 128 126 136 140 141 142 146 156 161 169 172 178 171 182 195 187 184
75 79 76 85 88 87 84 83 86 89 98 114 125 132 135 134 129 126 123 117 115 112 108 100 88 78 66 73 94 121 112 119 122 134 142 125 122 135 137 145 152 161 162 164 164 180 169 154 174
68 81 85 99 97 92 93 91 89 93 106 118 129 134 136 137 134 126 122 122 121 118 108 101 93 84 73 56 51 99 102 111 111 105 91 103 105 99 111 118 145 143 147 156 150 165 153 163 172
32 89 121 116 124 125 111 111 110 113 119 124 131 137 139 139 135 132 133 128 123 119 115 114 114 109 100 88 58 82 98 102 100 102 98 82 98 97 111 117 113 124 127 124 158 163 160 168 177
281 231 207 171 159 129 116 115 116 133 135 135 140 138 141 143 141 140 139 136 132 126 122 124 128 121 122 109 100 98 107 103 101 107 104 90 95 101 117 119 135 108 109 151 163 148 158 170 170
252 235 213 185 166 152 171 138 133 147 148 146 146 144 146 146 147 144 143 140 133 131 127 140 138 130 137 132 74 85 88 96 102 106 106 102 106 119 103 117 111 137 159 162 151 165 172 171 179
249 242 208 183 170 173 183 150 149 161 156 154 152 151 154 154 151 146 150 145 139 135 134 139 123 130 140 138 124 99 92 82 95 103 105 123 128 120 120 118 103 195 135 138 161 117 159 190 183
288 280 247 189 162 191 173 152 153 167 165 162 163 162 163 163 159 154 155 147 145 143 141 145 145 142 146 141 140 137 129 135 139 121 120 111 115 123 124 127 120 112 90 78 73 80 134 203 223
270 278 285 142 160 206 184 166 162 174 174 167 171 171 171 167 161 158 158 156 154 150 152 155 156 148 157 163 172 182 163 174 156 144 139 138 140 98 86 58 126 105 96 99 105 158 233 227 183
260 266 270 209 195 245 231 201 173 177 180 177 176 173 171 164 159 159 163 162 160 156 158 159 167 166 177 177 184 195 171 174 146 123 134 146 149 169 149 121 200 118 146 159 183 198 233 247 189
262 273 282 292 270 255 270 245 196 183 176 180 180 175 173 169 165 165 168 167 164 164 168 173 169 170 178 188 191 189 170 167 141 140 135 153 168 156 127 134 152 181 164 150 220 205 233 245 235
260 271 271 261 273 267 224 237 205 188 179 183 182 177 176 172 168 167 171 172 171 170 169 163 163 171 176 193 202 202 182 178 176 157 153 167 182 170 163 159 164 215 123 147 238 171 256 232 252
272 278 275 273 272 272 243 237 196 185 183 183 185 181 176 173 171 169 172 174 173 172 169 161 160 170 179 193 199 208 202 187 170 161 162 171 176 184 171 170 180 183 168 195 257 242 270 257 269
259 269 274 271 262 261 257 254 194 190 177 174 177 178 171 165 166 165 167 166 171 171 169 161 160 170 179 192 195 198 202 202 187 191 182 195 184 182 183 181 177 198 178 207 222 248 245 272 293
247 257 264 264 252 249 242 245 181 138 152 167 170 167 160 161 163 163 165 167 171 173 172 164 164 172 181 190 196 194 201 206 201 216 214 217 190 176 193 159 151 201 195 204 199 217 246 255 267
244 247 253 261 278 286 255 226 158 145 158 144 142 149 158 162 161 163 165 167 172 176 173 166 167 174 181 187 191 195 202 211 206 215 230 208 213 181 164 154 161 193 208 214 208 227 215 219 236
248 243 251 256 270 276 267 222 152 150 148 138 138 145 157 164 167 164 163 165 168 173 173 170 165 171 180 186 185 188 195 217 217 200 213 219 210 199 154 163 172 187 201 230 227 242 251 225 227
245 256 253 246 261 272 268 249 185 139 131 129 137 140 149 163 164 157 163 166 168 173 172 170 169 171 176 182 190 194 196 205 205 208 213 211 202 181 157 173 187 200 204 217 231 237 235 226 220
232 246 261 275 264 264 275 283 136 144 142 139 139 140 157 169 165 161 164 163 165 169 173 175 169 172 180 186 189 191 185 196 200 206 217 210 197 193 194 192 197 209 212 222 230 235 243 228 230
244 241 248 255 262 272 265 253 122 121 134 137 134 147 165 164 157 160 157 158 164 170 173 172 174 180 184 186 183 189 185 190 197 204 202 199 199 206 205 198 209 219 210 218 231 243 233 230 232